x

8722670 - Lake Worth, Fl (lkwf1) Weather Station

3:18pm - Tue 27th Jan 2015 All times are EST. -5 hours from GMT.

  • Wind
    11mph, 20mph gusts
  • Sea Temp 73°f
  • Air Temp 65°f
  • Sea Pressure 1014.3mb
  • 8722670 - Lake Worth, Fl
  • 8722670 - Lake Worth, Fl

More Historic Weather Station data

Upgrade to MSW Pro to gain access to the past 30 days of data for over 8000 Wavebouys and Weather Stations around the globe.

Join Pro

Comparision Forecast

View Surf forecast
   
Tue 01/27 3:18pm 11 20 mph 1014.3mb 73f 65f
3:12pm 15 20 mph 1014.4mb 73f 64f
3:06pm 14 20 mph 1014.4mb 74f 64f
3:00pm 15 23 mph 1014.5mb 74f 65f
2:54pm 10 20 mph 1014.5mb 74f 64f
2:48pm 15 18 mph 1014.6mb 74f 64f
2:42pm 15 21 mph 1014.6mb 74f 64f
2:36pm 15 22 mph 1014.6mb 74f 64f
2:30pm 15 20 mph 1014.7mb 74f 63f
2:24pm 11 20 mph 1014.7mb 73f 63f
2:18pm 15 20 mph 1014.7mb 73f 63f
2:12pm 11 17 mph 1014.8mb 73f 63f
2:06pm 11 16 mph 1014.9mb 73f 63f
2:00pm 16 25 mph 1014.9mb 73f 62f
1:54pm 20 25 mph 1015mb 73f 62f
1:48pm 13 18 mph 1015mb 73f 63f
1:42pm 13 20 mph 1015mb 73f 63f
1:36pm 11 22 mph 1015.1mb 73f 62f
1:30pm 14 23 mph 1015.2mb 74f 63f
1:24pm 11 21 mph 1015.2mb 74f 63f
1:18pm 15 23 mph 1015.4mb 74f 62f
1:12pm 14 18 mph 1015.4mb 74f 62f
1:06pm 14 18 mph 1015.5mb 74f 62f
1:00pm 16 24 mph 1015.7mb 74f 62f
12:54pm 14 21 mph 1015.8mb 74f 62f
12:48pm 16 20 mph 1015.9mb 74f 62f
12:42pm 14 20 mph 1016mb 74f 62f
12:36pm 13 22 mph 1016.1mb 74f 62f
12:30pm 10 14 mph 1016.2mb 74f 62f
12:24pm 11 16 mph 1016.4mb 74f 61f
12:18pm 14 18 mph 1016.4mb 74f 61f
12:12pm 13 17 mph 1016.6mb 74f 60f
12:06pm 13 18 mph 1016.8mb 74f 61f
12:00pm 14 20 mph 1016.9mb 74f 60f
11:54am 14 22 mph 1017mb 74f 60f
11:48am 14 21 mph 1017.1mb 74f 59f
11:42am 13 21 mph 1017.1mb 74f 60f
11:36am 15 20 mph 1017.3mb 74f 60f
11:30am 14 22 mph 1017.4mb 74f 59f
11:24am 14 17 mph 1017.5mb 74f 59f
11:18am 13 18 mph 1017.5mb 74f 59f
11:12am 15 18 mph 1017.6mb 74f 59f
11:06am 16 20 mph 1017.7mb 73f 58f
11:00am 13 20 mph 1017.7mb 74f 58f
10:54am 14 16 mph 1017.8mb 74f 58f
10:48am 11 18 mph 1017.8mb 73f 58f
10:42am 13 17 mph 1017.9mb 73f 58f
10:36am 13 17 mph 1017.9mb 73f 58f
10:30am 13 17 mph 1017.9mb 73f 58f
10:24am 14 15 mph 1017.9mb 73f 57f
10:18am 9 14 mph 1017.9mb 73f 58f
10:12am 10 15 mph 1017.8mb 73f 57f
10:06am 11 18 mph 1017.8mb 73f 57f
10:00am 13 15 mph 1017.7mb 73f 56f
9:54am 13 15 mph 1017.6mb 73f 56f
9:48am 13 17 mph 1017.5mb 73f 55f
9:42am 11 17 mph 1017.5mb 73f 55f
9:36am 16 18 mph 1017.4mb 73f 55f
9:30am 14 17 mph 1017.4mb 73f 54f
9:24am 14 17 mph 1017.3mb 73f 54f
9:18am 14 18 mph 1017.3mb 73f 54f
9:12am 13 20 mph 1017.2mb 73f 54f
9:06am 10 16 mph 1017.2mb 73f 54f
9:00am 11 20 mph 1017.2mb 73f 54f
8:54am 14 18 mph 1017.2mb 73f 53f
8:48am 15 20 mph 1017.2mb 73f 53f
8:42am 14 21 mph 1017.1mb 73f 53f
8:36am 15 17 mph 1017.1mb 73f 53f
8:30am 14 18 mph 1017.1mb 73f 53f
8:24am 13 15 mph 1016.9mb 73f 53f
8:18am 9 16 mph 1016.9mb 73f 53f
8:12am 14 17 mph 1016.9mb 72f 52f
8:06am 13 17 mph 1016.9mb 72f 52f
8:00am 11 16 mph 1016.8mb 72f 52f
7:54am 14 17 mph 1016.7mb 72f 52f
7:48am 13 18 mph 1016.7mb 72f 52f
7:42am 13 17 mph 1016.6mb 72f 52f
7:36am 11 16 mph 1016.6mb 72f 52f
7:30am 9 17 mph 1016.6mb 72f 52f
7:24am 15 18 mph 1016.6mb 72f 52f
7:18am 13 17 mph 1016.6mb 72f 52f
7:12am 11 16 mph 1016.6mb 72f 52f
7:06am 10 14 mph 1016.6mb 72f 52f
7:00am 9 15 mph 1016.4mb 72f 52f
6:54am 13 15 mph 1016.3mb 72f 52f
6:48am 9 11 mph 1016.3mb 72f 52f
6:42am 9 11 mph 1016.2mb 72f 52f
6:36am 7 10 mph 1016.1mb 72f 52f
6:30am 8 10 mph 1015.9mb 72f 52f
6:24am 10 11 mph 1015.7mb 72f 52f
6:18am 8 11 mph 1015.6mb 72f 52f
6:12am 8 10 mph 1015.5mb 73f 52f
6:06am 6 10 mph 1015.4mb 73f 53f
6:00am 7 10 mph 1015.2mb 73f 53f
5:54am 10 15 mph 1015.1mb 73f 53f
5:48am 11 15 mph 1015mb 73f 53f
5:42am 8 10 mph 1015mb 73f 53f
5:36am 8 10 mph 1015.1mb 73f 53f
5:30am 8 14 mph 1015mb 73f 53f
5:24am 9 15 mph 1015mb 73f 53f
5:18am 9 15 mph 1015mb 73f 53f
5:12am 8 11 mph 1014.9mb 73f 53f
5:06am 7 11 mph 1014.9mb 73f 53f
5:00am 6 10 mph 1014.9mb 73f 53f
4:54am 8 11 mph 1014.8mb 73f 53f
4:48am 8 10 mph 1014.7mb 73f 54f
4:42am 7 9 mph 1014.6mb 74f 54f
4:36am 7 11 mph 1014.5mb 74f 54f
4:30am 7 11 mph 1014.5mb 74f 54f
4:24am 8 10 mph 1014.5mb 74f 54f
4:18am 8 13 mph 1014.5mb 74f 54f
4:12am 8 10 mph 1014.4mb 74f 54f
4:06am 8 11 mph 1014.3mb 74f 54f
4:00am 8 10 mph 1014.2mb 74f 54f
3:54am 7 9 mph 1014.2mb 74f 54f
3:48am 7 8 mph 1014.3mb 74f 54f
3:42am 6 9 mph 1014.4mb 74f 54f
3:36am 8 11 mph 1014.4mb 73f 54f
3:30am 7 14 mph 1014.3mb 73f 55f
3:24am 8 11 mph 1014.1mb 73f 55f
3:18am 7 14 mph 1014.1mb 73f 55f
3:12am 6 10 mph 1014.3mb 73f 55f
3:06am 8 13 mph 1014.2mb 73f 55f
3:00am 8 10 mph 1014.2mb 73f 55f
2:54am 7 13 mph 1014.2mb 73f 55f
2:48am 9 14 mph 1014.2mb 73f 55f
2:42am 9 13 mph 1014.2mb 73f 55f
2:36am 8 10 mph 1014.1mb 73f 55f
2:30am 7 13 mph 1014.2mb 73f 55f
2:24am 7 10 mph 1014.2mb 73f 55f
2:18am 7 11 mph 1014.3mb 73f 55f
2:12am 7 9 mph 1014.2mb 73f 55f
2:06am 7 9 mph 1014.2mb 73f 55f
2:00am 6 10 mph 1014.2mb 73f 56f
1:54am 8 11 mph 1014.3mb 73f 56f
1:48am 8 10 mph 1014.3mb 73f 56f
1:42am 6 9 mph 1014.4mb 73f 56f
1:36am 6 9 mph 1014.5mb 73f 56f
1:30am 9 11 mph 1014.7mb 73f 56f
1:24am 7 11 mph 1014.8mb 73f 56f
1:18am 7 11 mph 1014.8mb 73f 56f
1:12am 7 10 mph 1014.8mb 73f 56f
1:06am 6 9 mph 1014.8mb 73f 56f
1:00am 7 9 mph 1014.7mb 73f 56f
12:54am 6 10 mph 1014.7mb 73f 56f
12:48am 7 10 mph 1014.7mb 73f 56f
12:42am 6 10 mph 1014.7mb 73f 57f
12:36am 7 10 mph 1014.7mb 73f 57f
12:30am 6 9 mph 1014.6mb 73f 57f
12:24am 7 10 mph 1014.6mb 73f 57f
12:18am 7 11 mph 1014.6mb 73f 57f
12:12am 7 14 mph 1014.5mb 73f 57f
12:06am 8 14 mph 1014.4mb 73f 57f
12:00am 8 15 mph 1014.6mb 73f 57f
Mon 01/26 11:54pm 9 15 mph 1014.7mb 73f 58f
11:48pm 10 14 mph 1014.7mb 73f 58f
11:42pm 10 14 mph 1014.6mb 73f 58f
11:36pm 10 15 mph 1014.6mb 73f 58f
11:30pm 9 17 mph 1014.5mb 73f 58f
11:24pm 9 17 mph 1014.5mb 73f 58f
11:18pm 9 14 mph 1014.3mb 73f 58f
11:12pm 11 16 mph 1014.2mb 73f 58f
11:06pm 9 14 mph 1014.2mb 73f 59f
11:00pm 9 14 mph 1014.2mb 73f 59f
10:54pm 9 13 mph 1014.1mb 73f 59f
10:48pm 8 11 mph 1014mb 73f 59f
10:42pm 7 11 mph 1014mb 73f 59f
10:36pm 8 11 mph 1013.9mb 73f 59f
10:30pm 7 11 mph 1013.8mb 73f 59f
10:24pm 8 13 mph 1013.6mb 73f 60f
10:18pm 8 15 mph 1013.5mb 73f 60f
10:12pm 10 14 mph 1013.5mb 73f 60f
10:06pm 9 13 mph 1013.6mb 73f 60f
10:00pm 9 14 mph 1013.6mb 73f 60f
9:54pm 10 14 mph 1013.5mb 73f 60f
9:48pm 13 17 mph 1013.7mb 73f 60f
9:42pm 13 18 mph 1013.7mb 73f 60f
9:36pm 13 18 mph 1013.7mb 73f 60f
9:30pm 9 13 mph 1013.7mb 73f 60f
9:24pm 9 14 mph 1013.6mb 73f 60f
9:18pm 8 11 mph 1013.5mb 73f 61f
9:12pm 8 10 mph 1013.6mb 73f 61f
9:06pm 9 13 mph 1013.6mb 73f 61f
9:00pm 8 13 mph 1013.6mb 73f 61f
8:54pm 8 14 mph 1013.6mb 73f 61f
8:48pm  -  mph 1013.6mb 73f 62f
8:42pm  -  mph 1013.4mb 73f 62f
8:36pm  -  mph 1013.4mb 73f 62f
8:30pm 9 14 mph 1013.2mb 73f 62f
8:24pm 9 17 mph 1013.1mb 73f 62f
8:18pm 10 14 mph 1013mb 73f 62f
8:12pm 9 14 mph 1013mb 73f 63f
8:06pm 10 15 mph 1013mb 73f 63f
8:00pm 10 16 mph 1012.8mb 73f 63f
7:54pm 9 15 mph 1012.8mb 73f 63f
7:48pm 7 14 mph 1012.6mb 73f 63f
7:42pm 10 13 mph 1012.6mb 73f 63f
7:36pm 9 13 mph 1012.5mb 73f 64f
7:30pm 7 11 mph 1012.4mb 73f 64f
7:24pm 7 14 mph 1012.4mb 73f 64f
7:18pm 7 10 mph 1012.2mb 74f 64f
7:12pm 8 11 mph 1012.2mb 74f 64f
7:06pm 8 16 mph 1012.2mb 74f 65f
7:00pm 9 13 mph 1012.1mb 74f 65f
6:54pm 8 18 mph 1012.1mb 74f 65f
6:48pm 11 16 mph 1012mb 74f 65f
6:42pm 9 20 mph 1012.1mb 74f 65f
6:36pm 11 17 mph 1012mb 74f 66f
6:30pm 10 17 mph 1012mb 74f 66f
6:24pm 11 17 mph 1011.9mb 74f 66f
6:18pm 13 17 mph 1011.9mb 74f 66f
6:12pm 11 18 mph 1011.8mb 74f 66f
6:06pm 13 17 mph 1011.6mb 74f 67f
6:00pm 16 23 mph 1011.5mb 74f 67f
5:54pm 16 28 mph 1011.4mb 74f 67f
5:48pm 18 28 mph 1011.4mb 74f 67f
5:42pm 13 22 mph 1011.2mb 74f 67f
5:36pm 15 22 mph 1011.2mb 74f 68f
5:30pm 16 23 mph 1011.1mb 74f 68f
5:24pm 17 22 mph 1011.1mb 74f 68f
5:18pm 18 25 mph 1011.1mb 74f 69f
5:12pm 14 20 mph 1011mb 74f 69f
5:06pm 18 25 mph 1010.8mb 74f 69f
5:00pm 21 32 mph 1010.7mb 74f 69f
4:54pm 17 29 mph 1010.7mb 74f 69f
4:48pm 17 24 mph 1010.6mb 74f 70f
4:42pm 17 25 mph 1010.6mb 74f 70f
4:36pm 22 28 mph 1010.4mb 74f 70f
4:30pm 16 25 mph 1010.4mb 73f 71f
4:24pm 20 30 mph 1010.3mb 74f 71f
4:18pm 16 29 mph 1010.3mb 74f 71f
4:12pm 18 28 mph 1010.3mb 74f 71f
4:06pm 17 26 mph 1010.3mb 74f 71f
4:00pm 13 23 mph 1010.1mb 74f 71f
3:54pm 18 24 mph 1010mb 74f 71f
3:48pm 18 24 mph 1010mb 74f 71f
3:42pm 22 30 mph 1010mb 74f 71f
3:36pm 18 29 mph 1009.8mb 74f 71f
3:30pm 18 25 mph 1009.8mb 74f 71f
3:24pm 16 29 mph 1009.6mb 74f 71f
3:18pm 20 28 mph 1009.5mb 74f 71f
3:12pm 14 24 mph 1009.6mb 74f 71f
3:06pm 16 28 mph 1009.7mb 74f 71f
3:00pm 17 25 mph 1009.7mb 74f 71f
2:54pm 18 23 mph 1009.7mb 74f 70f
2:48pm 18 24 mph 1009.7mb 74f 71f
2:42pm 13 24 mph 1009.8mb 74f 71f
2:36pm 15 29 mph 1009.9mb 74f 70f
2:30pm 17 25 mph 1009.9mb 74f 70f
2:24pm 16 25 mph 1009.7mb 73f 70f
2:18pm 17 28 mph 1009.8mb 74f 70f
2:12pm 14 22 mph 1009.9mb 74f 70f
2:06pm 18 24 mph 1009.9mb 74f 69f
2:00pm 16 25 mph 1009.8mb 74f 69f
1:54pm 16 23 mph 1009.7mb 74f 70f
1:48pm 15 29 mph 1009.8mb 74f 69f
1:42pm 15 24 mph 1009.9mb 74f 69f
1:36pm 18 24 mph 1010mb 74f 69f
1:30pm 21 25 mph 1010.2mb 74f 68f
1:24pm 21 25 mph 1010.3mb 73f 68f
1:18pm 16 24 mph 1010.4mb 73f 69f
1:12pm 16 21 mph 1010.4mb 73f 68f
1:06pm 15 25 mph 1010.5mb 73f 68f
1:00pm 15 23 mph 1010.7mb 73f 68f
12:54pm 17 24 mph 1010.9mb 73f 67f
12:48pm 14 21 mph 1010.9mb 73f 67f
12:42pm 14 22 mph 1011.2mb 73f 67f
12:36pm 15 21 mph 1011.3mb 73f 67f
12:30pm 17 23 mph 1011.5mb 73f 67f
12:24pm 17 24 mph 1011.8mb 73f 67f
12:18pm 14 22 mph 1012mb 73f 66f
12:12pm 11 23 mph 1012.1mb 73f 66f
12:06pm 14 20 mph 1012.2mb 73f 65f
12:00pm 13 21 mph 1012.4mb 73f 65f
11:54am 15 22 mph 1012.4mb 73f 65f
11:48am 15 20 mph 1012.5mb 73f 65f
11:42am 15 21 mph 1012.6mb 73f 65f
11:36am 13 21 mph 1012.7mb 73f 65f
11:30am 16 21 mph 1012.7mb 73f 64f
11:24am 13 20 mph 1012.8mb 73f 64f
11:18am 10 17 mph 1012.8mb 73f 64f
11:12am 13 16 mph 1013mb 73f 63f
11:06am 10 14 mph 1013.2mb 73f 63f
11:00am 10 13 mph 1013.4mb 73f 62f
10:54am 9 14 mph 1013.5mb 73f 62f
10:48am 8 14 mph 1013.6mb 73f 62f
10:42am 9 15 mph 1013.8mb 73f 61f
10:36am 10 16 mph 1014mb 73f 61f
10:30am 14 20 mph 1014.3mb 73f 61f
10:24am 14 18 mph 1014.2mb 73f 61f
10:18am 16 21 mph 1014.1mb 73f 61f
10:12am 17 22 mph 1013.9mb 73f 61f
10:06am 17 24 mph 1013.7mb 73f 62f
10:00am 16 28 mph 1013.1mb 74f 67f
9:54am 21 26 mph 1012.6mb 74f 67f
9:48am 18 25 mph 1012.5mb 74f 67f
9:42am 16 24 mph 1012.5mb 74f 67f
9:36am 18 22 mph 1012.6mb 74f 67f
9:30am 15 23 mph 1012.6mb 74f 66f
9:24am 14 21 mph 1012.6mb 73f 65f
9:18am 14 21 mph 1012.7mb 74f 65f
9:12am 15 20 mph 1012.7mb 74f 65f
9:06am 15 17 mph 1012.7mb 74f 65f
9:00am 15 21 mph 1012.7mb 74f 64f
8:54am 15 21 mph 1012.7mb 74f 64f
8:48am 14 20 mph 1012.8mb 74f 64f
8:42am 13 18 mph 1012.8mb 74f 63f
8:36am 13 16 mph 1012.8mb 74f 62f
8:30am 14 16 mph 1012.8mb 74f 62f
8:24am 11 16 mph 1012.7mb 74f 61f
8:18am 11 15 mph 1012.8mb 74f 61f
8:12am 11 17 mph 1012.7mb 74f 61f
8:06am 11 17 mph 1012.7mb 74f 61f
8:00am 13 16 mph 1012.6mb 74f 61f
7:54am 13 15 mph 1012.6mb 74f 60f
7:48am 14 17 mph 1012.6mb 74f 60f
7:42am 14 17 mph 1012.5mb 74f 60f
7:36am 13 15 mph 1012.4mb 74f 60f
7:30am 14 16 mph 1012.5mb 74f 60f
7:24am 14 15 mph 1012.5mb 74f 59f
7:18am 13 15 mph 1012.6mb 74f 59f
7:12am 13 15 mph 1012.7mb 74f 59f
7:06am 11 16 mph 1012.7mb 74f 59f
7:00am 13 16 mph 1012.8mb 74f 59f
6:54am 10 15 mph 1012.8mb 74f 58f
6:48am 10 15 mph 1012.8mb 74f 58f
6:42am 10 14 mph 1012.9mb 73f 58f
6:36am 13 16 mph 1012.9mb 73f 58f
6:30am 10 16 mph 1012.9mb 74f 58f
6:24am 11 14 mph 1012.8mb 74f 58f
6:18am 10 15 mph 1012.9mb 74f 58f
6:12am 11 14 mph 1012.8mb 74f 58f
6:06am 10 14 mph 1012.9mb 74f 58f
6:00am 9 13 mph 1012.9mb 74f 58f
5:54am 9 10 mph 1012.9mb 74f 57f
5:48am 7 9 mph 1013mb 74f 57f
5:42am 9 11 mph 1013mb 74f 57f
5:36am 8 10 mph 1013.1mb 74f 56f
5:30am 8 11 mph 1013.1mb 74f 56f
5:24am 7 9 mph 1013.2mb 74f 56f
5:18am 7 10 mph 1013.1mb 74f 56f
5:12am 7 10 mph 1013.1mb 74f 56f
5:06am 7 9 mph 1013.1mb 74f 56f
5:00am 7 10 mph 1013.3mb 74f 56f
4:54am 8 10 mph 1013.3mb 74f 55f
4:48am 7 9 mph 1013.4mb 74f 55f
4:42am 8 10 mph 1013.5mb 74f 55f
4:36am 6 9 mph 1013.6mb 74f 55f
4:30am 7 10 mph 1013.6mb 74f 55f
4:24am 7 8 mph 1013.6mb 74f 55f
4:18am 7 9 mph 1013.6mb 74f 55f
4:12am 6 10 mph 1013.6mb 74f 55f
4:06am 7 11 mph 1013.6mb 74f 55f
4:00am 7 8 mph 1013.6mb 74f 55f
3:54am 6 9 mph 1013.7mb 74f 55f
3:48am 7 9 mph 1013.7mb 74f 55f
3:42am 6 8 mph 1013.7mb 74f 55f
3:36am 7 8 mph 1013.7mb 74f 55f
3:30am 6 9 mph 1013.8mb 74f 55f
3:24am 6 8 mph 1013.8mb 74f 55f
3:18am 7 9 mph 1014mb 74f 55f
3:12am 7 10 mph 1014.2mb 74f 55f
3:06am 7 8 mph 1014.2mb 74f 55f
3:00am 6 9 mph 1014.2mb 74f 55f
2:54am 8 9 mph 1014.2mb 74f 55f
2:48am 7 9 mph 1014.3mb 74f 55f
2:42am 7 9 mph 1014.1mb 74f 55f
2:36am 7 10 mph 1014.3mb 74f 55f
2:30am 7 11 mph 1014.3mb 74f 55f
2:24am 8 10 mph 1014.2mb 74f 55f
2:18am 8 11 mph 1014.3mb 74f 55f
2:12am 6 9 mph 1014.1mb 74f 56f
2:06am 6 7 mph 1014.1mb 74f 56f
2:00am 6 7 mph 1014.1mb 74f 56f
1:54am 6 8 mph 1014mb 74f 56f
1:48am 6 9 mph 1014.1mb - 56f
1:42am 7 10 mph 1014.1mb - 56f
1:36am 7 9 mph 1014.1mb - 56f
1:30am 7 10 mph 1014.1mb 74f 57f
1:24am 6 8 mph 1014.3mb 74f 57f
1:18am 7 9 mph 1014.4mb 74f 57f
1:12am 7 9 mph 1014.6mb 74f 56f
1:06am 6 10 mph 1014.6mb 74f 57f
1:00am 7 9 mph 1014.7mb 74f 56f
12:54am 7 8 mph 1014.9mb 74f 57f
12:48am 6 9 mph 1014.9mb 74f 57f
12:42am 7 10 mph 1015mb 74f 57f
12:36am 6 8 mph 1015.1mb 74f 57f
12:30am 7 11 mph 1015.2mb 74f 57f
12:24am 6 8 mph 1015.4mb 74f 57f
12:18am 8 10 mph 1015.4mb 74f 57f
12:12am 6 9 mph 1015.4mb 74f 57f
12:06am 6 8 mph 1015.5mb 74f 57f
12:00am 6 7 mph 1015.6mb 74f 57f
Sun 01/25 11:54pm 6 8 mph 1015.7mb 74f 57f
11:48pm 7 8 mph 1015.6mb 74f 57f
11:42pm 6 7 mph 1015.7mb 74f 58f
11:36pm 5 7 mph 1015.7mb 74f 58f
11:30pm 5 6 mph 1015.8mb 74f 58f
11:24pm 6 7 mph 1015.9mb 74f 58f
11:18pm 5 6 mph 1015.9mb 74f 59f
11:12pm 5 6 mph 1015.7mb 74f 59f
11:06pm 5 6 mph 1015.8mb 74f 58f
11:00pm 3 6 mph 1016mb 74f 59f
10:54pm 5 6 mph 1016.2mb 74f 59f
10:48pm 5 6 mph 1016.2mb 74f 59f
10:42pm 3 6 mph 1016.3mb 74f 59f
10:36pm 3 5 mph 1016.4mb 74f 59f
10:30pm 3 5 mph 1016.6mb 74f 59f
10:24pm 3 5 mph 1016.7mb 74f 59f
10:18pm 3 5 mph 1016.8mb 74f 59f
10:12pm 3 5 mph 1016.7mb 74f 59f
10:06pm 2 5 mph 1016.8mb 74f 59f
10:00pm 2 5 mph 1016.7mb 74f 59f
9:54pm 2 3 mph 1016.5mb 74f 59f
9:48pm 2 3 mph 1016.4mb 74f 59f
9:42pm 2 3 mph 1016.5mb 74f 59f
9:36pm 2 3 mph 1016.5mb 74f 59f
9:30pm 1 3 mph 1016.6mb 74f 59f
9:24pm 2 3 mph 1016.8mb 74f 59f
9:18pm 2 5 mph 1016.8mb 74f 59f
9:12pm 3 5 mph 1017.1mb 74f 59f
9:06pm 3 5 mph 1017.2mb 74f 59f
9:00pm 2 5 mph 1017mb 74f 59f
8:54pm 3 5 mph 1016.7mb 74f 59f
8:48pm 3 5 mph 1016.5mb 75f 59f
8:42pm 3 5 mph 1016.3mb 75f 59f
8:36pm 2 3 mph 1016.2mb 75f 59f
8:30pm 3 6 mph 1016.4mb 75f 59f
8:24pm 5 6 mph 1016.6mb 75f 59f
8:18pm 5 7 mph 1016.8mb 75f 59f
8:12pm 7 8 mph 1016.9mb 75f 60f
8:06pm 8 9 mph 1016.8mb 75f 60f
8:00pm 6 9 mph 1016.7mb 75f 60f
7:54pm 5 6 mph 1016.5mb 75f 60f
7:48pm 6 8 mph 1016.3mb 75f 60f
7:42pm 5 6 mph 1016.4mb 75f 60f
7:36pm 6 7 mph 1016.2mb 75f 61f
7:30pm 6 8 mph 1016.2mb 75f 61f
7:24pm 6 8 mph 1016.3mb 75f 61f
7:18pm 5 7 mph 1016.3mb 75f 61f
7:12pm 6 9 mph 1016.2mb 75f 61f
7:06pm 7 9 mph 1016.3mb 75f 62f
7:00pm 7 9 mph 1016.1mb 75f 62f
6:54pm 6 10 mph 1016.1mb 75f 62f
6:48pm 6 8 mph 1016mb 75f 63f
6:42pm 6 7 mph 1015.7mb 75f 63f
6:36pm 5 7 mph 1015.8mb 75f 63f
6:30pm 5 8 mph 1015.7mb 75f 63f
6:24pm 6 8 mph 1015.5mb 75f 63f
6:18pm 7 9 mph 1015.4mb 75f 63f
6:12pm 7 9 mph 1015.3mb 75f 63f
6:06pm 7 9 mph 1015.2mb 75f 63f
6:00pm 7 9 mph 1015.4mb 75f 63f
5:54pm 7 9 mph 1015.4mb 75f 64f
5:48pm 7 8 mph 1015.3mb 75f 64f
5:42pm 7 8 mph 1015.2mb 75f 64f
5:36pm 7 10 mph 1015.1mb 75f 64f
5:30pm 7 9 mph 1015mb 75f 64f
5:24pm 7 9 mph 1015mb 75f 64f
5:18pm 8 10 mph 1015.2mb 75f 64f
5:12pm 8 10 mph 1015.1mb 75f 65f
5:06pm 7 9 mph 1015.2mb 75f 64f
5:00pm 6 8 mph 1015.1mb 75f 64f
4:54pm 6 7 mph 1015.1mb 75f 64f
4:48pm 6 7 mph 1015mb 75f 64f
4:42pm 5 7 mph 1015.1mb 75f 64f
4:36pm 5 9 mph 1015.1mb 75f 64f
4:30pm 5 7 mph 1015.1mb 75f 64f
4:24pm 6 8 mph 1015mb 75f 64f
4:18pm 6 9 mph 1015.2mb 75f 64f
4:12pm 6 8 mph 1015.2mb 75f 64f
4:06pm 6 10 mph 1015.2mb 75f 64f
4:00pm 3 6 mph 1015.2mb 75f 64f
3:54pm 6 7 mph 1015.4mb 75f 64f
3:48pm 3 7 mph 1015.4mb 75f 64f
3:42pm 3 7 mph 1015.5mb 75f 64f
3:36pm 6 7 mph 1015.5mb 75f 63f
3:30pm 5 7 mph 1015.4mb 75f 64f
3:24pm 3 6 mph 1015.5mb 75f 64f
3:18pm 3 5 mph 1015.3mb 75f 64f
3:12pm 5 6 mph 1015.3mb 75f 64f
3:06pm 3 6 mph 1015.4mb 75f 64f
3:00pm 3 7 mph 1015.4mb 75f 64f
2:54pm 6 8 mph 1015.4mb 75f 63f
2:48pm 7 9 mph 1015.5mb 75f 63f
2:42pm 6 8 mph 1015.5mb 75f 63f
2:36pm 6 8 mph 1015.6mb 75f 64f
2:30pm 8 9 mph 1015.7mb 75f 63f
2:24pm 6 7 mph 1015.7mb 75f 63f
2:18pm 3 6 mph 1015.7mb 75f 64f
2:12pm 1 5 mph 1015.8mb 75f 64f
2:06pm 3 5 mph 1016mb 75f 64f
2:00pm 5 6 mph 1016.1mb 75f 63f
1:54pm 1 3 mph 1016mb 75f 64f
1:48pm 2 5 mph 1016mb 75f 64f
1:42pm 3 5 mph 1016.1mb 75f 63f
1:36pm 1 5 mph 1016.1mb 75f 64f
1:30pm 3 5 mph 1016.4mb 75f 64f
1:24pm 5 6 mph 1016.4mb 75f 64f
1:18pm 3 6 mph 1016.6mb 75f 64f
1:12pm 2 5 mph 1016.9mb 75f 63f
1:06pm  -  5 mph 1017.1mb 75f 64f
1:00pm 3 8 mph 1017.2mb 75f 63f
12:54pm 5 7 mph 1017.3mb 75f 63f
12:48pm 5 7 mph 1017.4mb 75f 63f
12:42pm 2 8 mph 1017.5mb 75f 62f
12:36pm 6 9 mph 1017.5mb 74f 61f
12:30pm 7 9 mph 1017.7mb 74f 61f
12:24pm 5 8 mph 1017.7mb 74f 62f
12:18pm 7 10 mph 1017.9mb 74f 61f
12:12pm 3 7 mph 1018mb 74f 61f
12:06pm 5 8 mph 1018.1mb 74f 61f
12:00pm 6 10 mph 1018.1mb 74f 60f
11:54am 5 8 mph 1018.3mb 74f 60f
11:48am 6 10 mph 1018.3mb 74f 60f
11:42am 6 8 mph 1018.4mb 74f 60f
11:36am 6 8 mph 1018.5mb 74f 59f
11:30am 5 7 mph 1018.6mb 74f 59f
11:24am 3 8 mph 1018.6mb 74f 60f
11:18am 7 9 mph 1018.7mb 74f 59f
11:12am 6 10 mph 1018.7mb 74f 58f
11:06am 6 8 mph 1018.8mb 74f 59f
11:00am 9 14 mph 1018.8mb 74f 58f
10:54am 9 13 mph 1018.8mb 74f 58f
10:48am 8 13 mph 1018.8mb 74f 57f
10:42am 10 11 mph 1018.8mb 74f 57f
10:36am 8 14 mph 1018.9mb 74f 57f
10:30am 9 13 mph 1019mb 74f 57f
10:24am 9 11 mph 1018.9mb 73f 56f
10:18am 10 13 mph 1018.9mb 73f 56f
10:12am 10 14 mph 1019mb 73f 56f
10:06am 10 13 mph 1019mb 73f 55f
10:00am 11 15 mph 1019mb 73f 55f
9:54am 14 17 mph 1019mb 73f 55f
9:48am 13 16 mph 1018.9mb 73f 55f
9:42am 11 17 mph 1019mb 72f 55f
9:36am 11 15 mph 1019mb 73f 54f
9:30am 11 14 mph 1018.8mb 73f 54f
9:24am 11 16 mph 1018.8mb 73f 54f
9:18am 11 15 mph 1018.8mb 73f 53f
9:12am 13 16 mph 1018.8mb 73f 53f
9:06am 14 17 mph 1018.8mb 73f 53f
9:00am 14 18 mph 1018.8mb 73f 53f
8:54am 15 18 mph 1018.7mb 73f 52f
8:48am 14 20 mph 1018.8mb 73f 52f
8:42am 16 20 mph 1018.7mb 73f 52f
8:36am 16 21 mph 1018.8mb 73f 52f
8:30am 14 18 mph 1018.8mb 73f 51f
8:24am 14 18 mph 1018.8mb 73f 51f
8:18am 13 16 mph 1018.7mb 73f 51f
8:12am 11 17 mph 1018.7mb 73f 51f
8:06am 11 17 mph 1018.5mb 73f 51f
8:00am 11 17 mph 1018.5mb 74f 51f
7:54am 11 17 mph 1018.4mb 74f 50f
7:48am 14 16 mph 1018.4mb 74f 50f
7:42am 11 16 mph 1018.4mb 73f 50f
7:36am 11 16 mph 1018.3mb 73f 50f
7:30am 11 15 mph 1018.2mb 73f 49f
7:24am 13 15 mph 1018.1mb 73f 49f
7:18am 13 20 mph 1018.1mb 73f 49f
7:12am 13 17 mph 1018.1mb 73f 49f
7:06am 13 16 mph 1018mb 73f 49f
7:00am 10 15 mph 1017.9mb 73f 49f
6:54am 11 14 mph 1017.8mb 73f 49f
6:48am 11 14 mph 1017.7mb 73f 49f
6:42am 11 15 mph 1017.6mb 73f 49f
6:36am 11 15 mph 1017.6mb 73f 49f
6:30am 11 15 mph 1017.5mb 73f 49f
6:24am 13 15 mph 1017.3mb 72f 49f
6:18am 13 16 mph 1017.2mb 72f 49f
6:12am 9 14 mph 1017.2mb 72f 49f
6:06am 9 14 mph 1017.1mb 72f 49f
6:00am 10 14 mph 1017.1mb 72f -
5:54am 9 14 mph 1017.1mb 72f -
5:48am 8 13 mph 1017mb 72f 49f
5:42am 8 11 mph 1016.9mb 72f 50f
5:36am 9 13 mph 1017mb 73f 49f
5:30am 9 11 mph 1016.8mb 73f 49f
5:24am 8 11 mph 1016.7mb 73f 50f
5:18am 7 13 mph 1016.7mb 73f 50f
5:12am 9 11 mph 1016.6mb 73f 50f
5:06am 9 11 mph 1016.6mb 73f 50f
5:00am 7 13 mph 1016.7mb 73f 50f
4:54am 8 11 mph 1016.6mb 73f 50f
4:48am 8 11 mph 1016.4mb 73f 50f
4:42am 9 13 mph 1016.4mb 73f 50f
4:36am 8 10 mph 1016.4mb 73f 50f
4:30am 9 14 mph 1016.5mb 73f 50f
4:24am 9 10 mph 1016.3mb 73f 50f
4:18am 8 14 mph 1016.2mb 73f 51f
4:12am 9 14 mph 1016.2mb 73f 51f
4:06am 11 14 mph 1016.1mb 73f 51f
4:00am 9 13 mph 1016.3mb 73f 51f
3:54am 9 13 mph 1016.2mb 73f 51f
3:48am 9 13 mph 1016.1mb 73f 51f
3:42am 9 14 mph 1016.2mb 73f 51f
3:36am 10 14 mph 1016.4mb 73f 51f
3:30am 9 16 mph 1016.4mb 73f 52f
3:24am 11 16 mph 1016.4mb 73f 52f
3:18am 8 13 mph 1016.3mb 73f 52f
3:12am 10 15 mph 1016.4mb 73f 52f
3:06am 10 15 mph 1016.5mb 73f 53f
3:00am 13 15 mph 1016.4mb 73f 53f
2:54am 11 16 mph 1016.4mb 73f 53f
2:48am 13 17 mph 1016.3mb 73f 53f
2:42am 14 20 mph 1016.2mb 73f 53f
2:36am 13 18 mph 1016.1mb 73f 53f
2:30am 14 18 mph 1016.2mb 73f 53f
2:24am 13 17 mph 1016mb 73f 53f
2:18am 13 16 mph 1016mb 73f 54f
2:12am 13 17 mph 1016.1mb 73f 54f
2:06am 14 18 mph 1016.1mb 73f 54f
2:00am 13 16 mph 1016mb 73f 54f
1:54am 11 15 mph 1016mb 73f 55f
1:48am 9 13 mph 1016mb 74f -
1:42am 8 11 mph 1016.1mb 74f -
1:36am 7 11 mph 1016.1mb 74f -
1:30am 8 11 mph 1016.1mb 74f 55f
1:24am 9 13 mph 1016mb 74f 55f
1:18am 8 13 mph 1016mb 74f 55f
1:12am 10 15 mph 1015.9mb 74f 56f
1:06am 11 16 mph 1015.9mb 74f 56f
1:00am 10 14 mph 1015.9mb 74f 56f
12:54am 10 15 mph 1015.8mb 74f 56f
12:48am 11 15 mph 1015.7mb 74f 56f
12:42am 10 14 mph 1015.6mb 74f 56f
12:36am 10 14 mph 1015.6mb 74f 56f
12:30am 10 15 mph 1015.7mb 74f 56f
12:24am 9 15 mph 1015.7mb 74f 57f
12:18am 9 13 mph 1015.7mb 74f 57f
12:12am 9 14 mph 1015.8mb 74f 57f
12:06am 10 14 mph 1015.8mb 74f 57f
12:00am 10 14 mph 1015.8mb 74f 58f
Sat 01/24 11:54pm 9 15 mph 1015.9mb 74f 57f
11:48pm 11 15 mph 1015.9mb 74f 57f
11:42pm 9 13 mph 1015.9mb 74f 57f
11:36pm 10 14 mph 1015.9mb 74f 58f
11:30pm 10 13 mph 1015.9mb 74f 58f
11:24pm 10 14 mph 1016mb 74f 58f
11:18pm 13 16 mph 1015.9mb 74f 58f
11:12pm 9 14 mph 1015.9mb 74f 58f
11:06pm 11 16 mph 1015.9mb 74f 58f
11:00pm 9 13 mph 1015.9mb 74f 59f
10:54pm 9 14 mph 1015.8mb 74f 59f
10:48pm 11 14 mph 1015.8mb 74f 59f
10:42pm 11 17 mph 1015.9mb 74f 59f
10:36pm 10 13 mph 1015.9mb 74f 59f
10:30pm 10 15 mph 1015.8mb 74f 60f
10:24pm 10 16 mph 1015.7mb 74f 60f
10:18pm 10 16 mph 1015.8mb 74f 60f
10:12pm 11 16 mph 1015.6mb 74f 60f
10:06pm 10 14 mph 1015.6mb 74f 60f
10:00pm 9 15 mph 1015.6mb 74f 60f
9:54pm 9 13 mph 1015.5mb 74f 61f
9:48pm 9 15 mph 1015.5mb 74f 61f
9:42pm 9 15 mph 1015.4mb 74f 61f
9:36pm 9 16 mph 1015.4mb 74f 61f
9:30pm 10 14 mph 1015.3mb 74f 61f
9:24pm 9 11 mph 1015.3mb 74f 61f
9:18pm 10 13 mph 1015.3mb 74f 62f
9:12pm 11 15 mph 1015.3mb 74f 62f
9:06pm 8 13 mph 1015.3mb 74f 62f
9:00pm 9 13 mph 1015.2mb 74f 62f
8:54pm 11 14 mph 1015.2mb 74f 62f
8:48pm 11 15 mph 1015.1mb 74f 62f
8:42pm 10 16 mph 1015.2mb 74f 63f
8:36pm 11 15 mph 1015.1mb 74f 63f
8:30pm 11 16 mph 1015.1mb 74f 63f
8:24pm 13 16 mph 1015.1mb 74f 63f
8:18pm 13 16 mph 1015.1mb 74f 63f
8:12pm 11 17 mph 1015.1mb 74f 64f
8:06pm 13 17 mph 1015.1mb 74f 64f
8:00pm 11 17 mph 1015.1mb 74f 64f
7:54pm 11 15 mph 1015mb 74f 64f
7:48pm 13 17 mph 1015mb 74f 64f
7:42pm 11 15 mph 1015mb 74f 64f
7:36pm 11 17 mph 1014.8mb 74f 65f
7:30pm 11 18 mph 1014.7mb 74f 65f
7:24pm 13 16 mph 1014.5mb 74f 65f
7:18pm 10 16 mph 1014.5mb 74f 65f
7:12pm 13 16 mph 1014.4mb 74f 65f
7:06pm 14 20 mph 1014.3mb 74f 65f
7:00pm 11 18 mph 1014.1mb 74f 66f
6:54pm 15 21 mph 1014mb 74f 66f
6:48pm 14 20 mph 1014mb 74f 66f
6:42pm 14 18 mph 1013.9mb 75f 66f
6:36pm 11 21 mph 1013.9mb 75f 67f
6:30pm 14 20 mph 1013.8mb 75f 67f
6:24pm 16 21 mph 1013.8mb 75f 67f
6:18pm 14 21 mph 1013.7mb 75f 67f
6:12pm 11 20 mph 1013.6mb 75f 67f
6:06pm 15 22 mph 1013.5mb 75f 68f
6:00pm 14 21 mph 1013.3mb 75f 68f
5:54pm 15 21 mph 1013.2mb 75f 68f
5:48pm 14 20 mph 1013.2mb 75f 68f
5:42pm 16 24 mph 1013.1mb 75f 68f
5:36pm 17 26 mph 1012.9mb 75f 68f
5:30pm 14 18 mph 1012.7mb 75f 69f
5:24pm 13 21 mph 1012.6mb 75f 69f
5:18pm 11 20 mph 1012.5mb 75f 69f
5:12pm 14 21 mph 1012.4mb 75f 69f
5:06pm 17 21 mph 1012.3mb 75f 69f
5:00pm 14 18 mph 1012.1mb 75f 69f
4:54pm 14 20 mph 1012mb 75f 70f
4:48pm 15 21 mph 1012.2mb 75f 69f
4:42pm 13 20 mph 1012.2mb 75f 69f
4:36pm 16 22 mph 1012.3mb 75f 69f
4:30pm 14 18 mph 1012.2mb 75f 69f
4:24pm 11 15 mph 1012.2mb 75f 69f
4:18pm 11 15 mph 1012.3mb 75f 69f
4:12pm 9 14 mph 1012.2mb 75f 69f
4:06pm 10 15 mph 1012.2mb 75f 69f
4:00pm 10 16 mph 1012.2mb 75f 69f
3:54pm 10 18 mph 1012.3mb 75f 68f
3:48pm 14 21 mph 1012.3mb 75f 68f
3:42pm 14 23 mph 1012.3mb 75f 68f
3:36pm 17 26 mph 1012.2mb 75f 68f
3:30pm 15 24 mph 1012.2mb 75f 69f
3:24pm 17 23 mph 1012.1mb 75f 68f
3:18pm 17 24 mph 1012.2mb 75f 68f
3:12pm 14 21 mph 1012.3mb 75f 69f
3:06pm 14 21 mph 1012.2mb 75f 69f
3:00pm 13 23 mph 1012.1mb 75f 69f
2:54pm 16 25 mph 1012mb 75f 69f
2:48pm 16 22 mph 1012.1mb 75f 69f
2:42pm 14 18 mph 1012.1mb 75f 68f
2:36pm 15 20 mph 1012.1mb 75f 68f
2:30pm 13 17 mph 1012.1mb 75f 69f
2:24pm 17 21 mph 1012.3mb 75f 68f
2:18pm 15 21 mph 1012.3mb 75f 68f
2:12pm 14 21 mph 1012.3mb 75f 68f
2:06pm 13 20 mph 1012.4mb 75f 68f
2:00pm 13 21 mph 1012.5mb 75f 68f
1:54pm 17 21 mph 1012.5mb 75f 68f
1:48pm 13 21 mph 1012.6mb 75f 68f
1:42pm 13 18 mph 1012.7mb 75f 67f
1:36pm 11 18 mph 1012.7mb 75f 67f
1:30pm 9 16 mph 1012.7mb 75f 67f
1:24pm 13 18 mph 1012.9mb 75f 67f
1:18pm 17 25 mph 1013mb 75f 66f
1:12pm 18 24 mph 1013.2mb 75f 66f
1:06pm 17 25 mph 1013.1mb 75f 66f
1:00pm 15 24 mph 1013.2mb 75f 67f
12:54pm 13 24 mph 1013.3mb 75f 67f
12:48pm 17 22 mph 1013.2mb 75f 67f
12:42pm 13 18 mph 1013.4mb 75f 66f
12:36pm 16 20 mph 1013.5mb 75f 66f
12:30pm 11 17 mph 1013.6mb 75f 66f
12:24pm 10 20 mph 1013.7mb 75f 66f
12:18pm 14 22 mph 1013.8mb 75f 66f
12:12pm 11 22 mph 1014mb 75f 66f
12:06pm 15 24 mph 1014.1mb 75f 66f
12:00pm 22 28 mph 1014.1mb 75f 66f
11:54am 11 21 mph 1014.1mb 75f 67f
11:48am 15 21 mph 1014mb 75f 67f
11:42am 16 24 mph 1014mb 75f 68f
11:36am 16 22 mph 1014.1mb 75f 68f
11:30am 14 25 mph 1014.1mb 75f 68f
11:24am 17 28 mph 1014.1mb 75f 69f
11:18am 16 25 mph 1013.6mb 75f 74f
11:12am 15 21 mph 1013.1mb 75f 75f
11:06am 18 26 mph 1013.3mb 75f 75f
11:00am 18 24 mph 1013.4mb 75f 75f
10:54am 16 23 mph 1013.4mb 75f 75f
10:48am 20 24 mph 1013.3mb 75f 76f
10:42am 18 24 mph 1013.3mb 75f 76f
10:36am 18 25 mph 1013.3mb 75f 76f
10:30am 14 28 mph 1013.2mb 75f 76f
10:24am 16 25 mph 1013.1mb 75f 76f
10:18am 16 23 mph 1013.1mb 75f 76f
10:12am 17 24 mph 1013.1mb 75f 75f
10:06am 20 25 mph 1013.1mb 75f 75f
10:00am 18 26 mph 1013.1mb 75f 75f
9:54am 16 24 mph 1013.2mb 75f 75f
9:48am 17 24 mph 1013.4mb 75f 75f
9:42am 16 21 mph 1013.3mb 75f 75f
9:36am 14 22 mph 1013.3mb 75f 75f
9:30am 13 24 mph 1013.2mb 75f 75f
9:24am 13 20 mph 1013.2mb 75f 75f
9:18am 14 22 mph 1013.2mb 75f 75f
9:12am 11 20 mph 1013.1mb 75f 75f
9:06am 15 20 mph 1013mb 75f 75f
9:00am 13 20 mph 1013mb 75f 75f
8:54am 17 23 mph 1012.8mb 75f 75f
8:48am 15 23 mph 1012.7mb 75f 75f
8:42am 18 28 mph 1012.6mb 75f 75f
8:36am 17 22 mph 1012.8mb 75f 75f
8:30am 18 25 mph 1012.6mb 75f 75f
8:24am 21 28 mph 1012.4mb 75f 75f
8:18am 20 25 mph 1012.5mb 75f 75f
8:12am 18 28 mph 1012.2mb 75f 75f
8:06am 18 22 mph 1012.5mb 75f 75f
8:00am 20 26 mph 1012.2mb 75f 75f
7:54am 21 26 mph 1012.1mb 75f 75f
7:48am 28 32 mph 1011.6mb 75f 75f
7:42am 29 32 mph 1010.9mb 75f 75f
7:36am 24 31 mph 1011.3mb 75f 75f
7:30am 24 32 mph 1011.4mb 75f 75f
7:24am 22 29 mph 1011.8mb 75f 75f
7:18am 24 30 mph 1011.8mb 75f 75f
7:12am 25 33 mph 1011.6mb 75f 75f
7:06am 24 29 mph 1011.7mb 75f 75f
7:00am 22 30 mph 1011.9mb 75f 75f
6:54am 23 29 mph 1011.8mb 75f 75f
6:48am 21 25 mph 1012.2mb 75f 75f
6:42am 16 24 mph 1012.3mb 75f 75f
6:36am 23 29 mph 1012.2mb 75f 75f
6:30am 18 25 mph 1012.2mb 75f 75f
6:24am 23 28 mph 1012mb 75f 75f
6:18am 18 28 mph 1011.9mb 75f 74f
6:12am 21 24 mph 1011.9mb 75f 74f
6:06am 18 23 mph 1012.1mb 75f 74f
6:00am 20 22 mph 1012.1mb 75f 74f
5:54am 18 24 mph 1012.2mb 75f 74f
5:48am 21 24 mph - 75f -
5:42am 21 24 mph - 75f -
5:36am 17 22 mph - 75f -
5:30am 20 22 mph 1012.3mb 75f 74f
5:24am 14 18 mph 1012.4mb 75f 74f
5:18am 14 16 mph 1012.5mb 75f 74f
5:12am 13 15 mph 1012.6mb 75f 74f
5:06am 14 22 mph 1012.6mb 75f 74f
5:00am 15 20 mph 1012.6mb 75f 74f
4:54am 15 21 mph 1012.6mb 75f 74f
4:48am 16 22 mph 1012.6mb 75f 74f
4:42am 15 18 mph 1012.6mb 75f 74f
4:36am 15 18 mph 1012.7mb 75f 74f
4:30am 15 17 mph 1012.8mb 75f 74f
4:24am 15 21 mph 1012.9mb 75f 74f
4:18am 16 20 mph 1012.9mb 75f 75f
4:12am 16 20 mph 1012.9mb 75f 75f
4:06am 16 21 mph 1012.8mb 75f 75f
4:00am 14 18 mph 1013mb 75f 75f
3:54am 15 21 mph 1013.1mb 75f 75f
3:48am 17 22 mph 1013.2mb 75f 75f
3:42am 15 22 mph 1013.2mb 75f 75f
3:36am 16 22 mph 1013.2mb 75f 75f
3:30am 20 22 mph 1013.2mb 75f 75f
3:24am 22 24 mph 1013.1mb 75f 75f
3:18am 22 26 mph 1013.2mb 75f 75f
3:12am 23 28 mph 1013.1mb 75f 75f
3:06am 21 26 mph 1013.1mb 75f 75f
3:00am 22 29 mph 1013mb 75f 75f
2:54am 22 29 mph 1013.1mb 75f 75f
2:48am 21 28 mph 1013.1mb 75f 75f
2:42am 25 29 mph 1013.1mb 75f 76f
2:36am 23 28 mph 1013.1mb 75f 75f
2:30am 22 28 mph 1013.1mb 75f 75f
2:24am 25 29 mph 1013.1mb 75f 76f
2:18am 23 29 mph 1013mb 75f 76f
2:12am 22 29 mph 1013.1mb 75f 75f
2:06am 23 30 mph 1013mb 75f 76f
2:00am 24 28 mph 1013mb 75f 76f
1:54am 24 28 mph 1013.1mb 75f 75f
1:48am 22 28 mph 1013.3mb 75f 75f
1:42am 25 26 mph 1013.5mb 75f 76f
1:36am 24 28 mph 1013.6mb 75f 75f
1:30am 24 29 mph 1013.6mb 75f 75f
1:24am 23 26 mph 1013.6mb 75f 75f
1:18am 23 26 mph 1013.6mb 75f 75f
1:12am 22 26 mph 1013.7mb 75f 75f
1:06am 23 26 mph 1013.8mb 75f 75f
1:00am 23 26 mph 1013.9mb 75f 75f
12:54am 23 26 mph 1014mb 75f 75f
12:48am 20 24 mph 1014.1mb 75f 75f
12:42am 22 24 mph 1014.2mb 75f 75f
12:36am 21 23 mph 1014.3mb 75f 75f
12:30am 22 24 mph 1014.4mb 75f 75f
12:24am 22 25 mph 1014.5mb 75f 75f
12:18am 23 25 mph 1014.5mb 75f 75f
12:12am 22 24 mph 1014.5mb 75f 75f
12:06am 22 24 mph 1014.6mb 75f 75f
12:00am 22 25 mph 1014.8mb 75f 75f
Fri 01/23 11:54pm 22 24 mph 1014.9mb 75f 75f
11:48pm 20 24 mph 1014.9mb 76f 75f
11:42pm 22 25 mph 1014.9mb 76f 75f
11:36pm 17 23 mph 1015.1mb 76f 75f
11:30pm 20 24 mph 1015.1mb 76f 75f
11:24pm 20 23 mph 1015.2mb 76f 75f
11:18pm 20 24 mph 1015.3mb 76f 75f
11:12pm 21 24 mph 1015.4mb 76f 75f
11:06pm 21 24 mph 1015.4mb 76f 75f
11:00pm 20 23 mph 1015.4mb 76f 75f
10:54pm 21 23 mph 1015.6mb 76f 75f
10:48pm 21 22 mph 1015.6mb 76f 75f
10:42pm 20 23 mph 1015.7mb 76f 75f
10:36pm 22 23 mph 1015.8mb 76f 75f
10:30pm 22 23 mph 1015.8mb 76f 75f
10:24pm 20 23 mph 1015.9mb 76f 75f
10:18pm  -  mph 1015.7mb 76f 75f
10:12pm  -  mph 1015.7mb 76f 75f
10:06pm  -  mph 1015.8mb 76f 75f
10:00pm 21 23 mph 1015.8mb - 75f
9:54pm 20 23 mph 1015.9mb - 75f
9:48pm 21 23 mph 1016mb 76f 75f
9:42pm 20 22 mph 1016.1mb 76f 75f
9:36pm 21 24 mph 1016.2mb 76f 75f
9:30pm 18 21 mph 1016.1mb 76f 75f
9:24pm 18 23 mph 1016.1mb 76f 75f
9:18pm 21 23 mph 1016.2mb 76f 75f
9:12pm 20 22 mph 1016.3mb 76f 75f